Regional Weather Roundup
Issued by NWS Raleigh/Durham, NC

Home | Current Version | Previous Version | Text Only | Print | Product List | Glossary On
Versions: 1 2 3 4 5 6 7 8 9 10 11 12 13 14 15 16 17 18 19 20 21 22 23 24 25 26 27 28 29 30 31 32 33 34 35 36 37 38 39 40 41 42 43 44 45 46 47 48 49 50
000
ASUS42 KRAH 101810
RWRRAH
NORTH CAROLINA WEATHER ROUNDUP
NATIONAL WEATHER SERVICE RALEIGH NC
100 PM EST WED FEB 10 2016

NOTE: "FAIR" INDICATES FEW OR NO CLOUDS BELOW 12,000 FEET WITH NO
SIGNIFICANT WEATHER AND/OR OBSTRUCTIONS TO VISIBILITY.

NCZ001-053-055-056-065-067-101900-
WESTERN NORTH CAROLINA

CITY           SKY/WX    TMP DP  RH WIND       PRES   REMARKS
ASHEVILLE      SUNNY     26   4  38 N15       29.91F WCI  14
JEFFERSON      CLOUDY    15   1  55 NW14G30   29.77F HAZE    WCI   0
MORGANTON      SUNNY     30   5  34 W14G23    29.97S WCI  19
HICKORY        SUNNY     31   6  35 MISG      29.91S
RUTHERFORDTON  SUNNY     32   5  32 NW17G26   29.94F WCI  21
MOUNT AIRY     MOSUNNY   31   8  37 NW12G21   29.90S WCI  22
BOONE          LGT SNOW  13   4  66 NW14G26   29.80F WCI  -2
$$

NCZ021-022-025-041-071-084-088-101900-
CENTRAL NORTH CAROLINA

CITY           SKY/WX    TMP DP  RH WIND       PRES   REMARKS
CHARLOTTE      PTSUNNY   35  11  36 W13       29.94F WCI  26
GREENSBORO     MOSUNNY   35  10  35 NW15      29.86F WCI  25
WINSTON-SALEM  MOSUNNY   34   9  35 W10       29.88F WCI  26
RALEIGH-DURHAM MOSUNNY   38  14  37 W8G16     29.88F WCI  32
FORT BRAGG     MOSUNNY   41  14  33 VRB7G21   29.89F
FAYETTEVILLE   MOSUNNY   41  16  36 W13       29.90F
BURLINGTON     MOSUNNY   37  14  38 SW15G22   29.87F WCI  28
LAURINBURG     PTSUNNY   38  14  37 W13G23    29.93F WCI  30
$$

NCZ011-015-027-028-043-044-047-080-103-101900-
NORTHEASTERN NORTH CAROLINA

CITY           SKY/WX    TMP DP  RH WIND       PRES   REMARKS
ROCKY MT-WILSO SUNNY     38  19  46 W10G18    29.88F WCI  31
GREENVILLE     SUNNY     37  19  48 NW8       29.90F WCI  31
WASHINGTON     SUNNY     38  18  44 W8G17     29.87F WCI  33
ELIZABETH CITY SUNNY     39  20  46 SW14G20   29.84F WCI  31
MANTEO         SUNNY     38  21  49 W9        29.86F WCI  32
CAPE HATTERAS  SUNNY     40  22  48 W10G17    29.88F WCI  33
$$

NCZ078-087-090-091-093-098-101-101900-
SOUTHEASTERN NORTH CAROLINA

CITY           SKY/WX    TMP DP  RH WIND       PRES   REMARKS
LUMBERTON      PTSUNNY   39  20  46 W10       29.92F WCI  32
GOLDSBORO      SUNNY     41  16  36 W8G18     29.87F
KINSTON        SUNNY     39  16  38 W7G17     29.89F WCI  34
KENANSVILLE    MOSUNNY   39  16  38 W9        29.91F WCI  33
NEW BERN       SUNNY     41  17  38 W16G22    29.89F
CHERRY POINT   SUNNY     41  18  39 SW16      29.89F
BEAUFORT       SUNNY     40  20  44 SW13      29.89F WCI  32
JACKSONVILLE   SUNNY     42  16  34 W14G20    29.89F
WILMINGTON     SUNNY     43  19  38 W14       29.91F
$$




USA.gov is the U.S. government's official web portal to all federal, state and local government web resources and services.